contact:dominique.lefevre@mio.osupytheas.fr, maurice.libes@osupytheas.fr, didier.mallarino@osupytheas.fr
Project:EMSO http://www.emso-fr.org/EMSO-France
Depth: 2436.0 m
Title:EMSO Ligure Ouest : Data MII capteur AQUADOPP
Date,Latitude,Longitude,X_East,Y_North,Z_Up,Amplitude_X,Amplitude_Y,Amplitude_Z,Batterie,SoundSpeed,Heading,Pitch,Roll,Pressure,TIS,Speed,Direction
, degrees North, degrees East, m.s-1, m.s-1,m.s-1, 1, 1, 1, Volt, m.s-1, degree, degree, degree, dbar, degree_C, m.s-1, degree
2022-08-20T00:04:03,42.805,6.029,0.012,-0.017,-0.029,103.0,103.0,101.0,13.4,1505.2,320.5,-0.8,1.8,2470.991,13.28,0.02,144.8
2022-08-20T00:07:03,42.805,6.029,-0.017,-0.011,-0.011,103.0,103.0,102.0,13.4,1505.2,333.4,-0.7,1.8,2470.972,13.28,0.02,237.1
2022-08-20T00:10:03,42.805,6.029,-0.012,0.01,-0.027,102.0,104.0,101.0,13.3,1505.2,319.7,-0.8,1.8,2470.961,13.29,0.015,309.8
2022-08-20T00:13:03,42.805,6.029,0.003,0.0,-0.047,104.0,103.0,101.0,13.4,1505.2,334.2,-0.8,1.8,2470.939,13.29,0.003,90.0
2022-08-20T00:16:03,42.805,6.029,0.006,0.01,-0.014,102.0,103.0,101.0,13.4,1505.2,318.9,-0.7,1.8,2470.932,13.29,0.011,31.0
2022-08-20T00:19:03,42.805,6.029,-0.016,-0.011,-0.023,103.0,102.0,101.0,13.4,1505.2,328.3,-0.8,1.8,2470.94,13.29,0.019,235.5
2022-08-20T00:22:03,42.805,6.029,0.011,0.008,-0.007,104.0,105.0,102.0,13.4,1505.2,321.7,-0.7,1.8,2470.935,13.29,0.013,54.0
2022-08-20T00:25:03,42.805,6.029,-0.02,0.014,-0.016,104.0,104.0,101.0,13.4,1505.2,326.9,-0.8,1.8,2470.93,13.29,0.024,305.0
2022-08-20T00:28:03,42.805,6.029,-0.005,0.017,0.01,103.0,103.0,101.0,13.4,1505.2,325.4,-0.8,1.8,2470.919,13.29,0.017,343.6
2022-08-20T00:31:03,42.805,6.029,-0.012,0.0,-0.003,104.0,104.0,101.0,13.4,1505.2,324.2,-0.8,1.8,2470.927,13.29,0.012,270.0
2022-08-20T00:34:03,42.805,6.029,0.018,-0.008,0.013,105.0,103.0,101.0,13.3,1505.2,325.4,-0.7,1.8,2470.92,13.29,0.019,114.0
2022-08-20T00:37:03,42.805,6.029,0.016,0.003,-0.006,103.0,103.0,101.0,13.4,1505.2,329.1,-0.8,1.8,2470.923,13.29,0.016,79.4
2022-08-20T00:40:03,42.805,6.029,-0.011,-0.004,-0.031,104.0,103.0,101.0,13.3,1505.2,319.6,-0.7,1.8,2470.931,13.29,0.011,250.0
2022-08-20T00:43:03,42.805,6.029,0.02,-0.003,0.026,103.0,103.0,102.0,13.4,1505.2,321.6,-0.7,1.8,2470.935,13.29,0.02,98.5
2022-08-20T00:46:03,42.805,6.029,0.002,0.007,0.001,104.0,101.0,100.0,13.4,1505.2,329.7,-0.8,1.8,2470.892,13.29,0.007,15.9
2022-08-20T00:49:03,42.805,6.029,0.019,-0.009,0.002,102.0,104.0,100.0,13.3,1505.2,321.4,-0.7,1.8,2470.909,13.29,0.021,115.3
2022-08-20T00:52:03,42.805,6.029,0.016,0.004,-0.013,103.0,103.0,101.0,13.3,1505.2,327.3,-0.8,1.8,2470.93,13.29,0.016,76.0
2022-08-20T00:55:03,42.805,6.029,0.014,-0.003,-0.031,102.0,104.0,101.0,13.4,1505.2,323.8,-0.8,1.8,2470.925,13.29,0.014,102.1
2022-08-20T00:58:03,42.805,6.029,0.012,-0.017,-0.031,104.0,103.0,101.0,13.4,1505.2,328.6,-0.8,1.8,2470.941,13.29,0.02,144.8
2022-08-20T01:04:03,42.805,6.029,0.0,-0.007,0.009,104.0,105.0,103.0,13.4,1505.2,321.3,-0.8,1.8,2470.963,13.28,0.007,180.0
2022-08-20T01:07:03,42.805,6.029,0.029,-0.007,0.012,103.0,103.0,101.0,13.4,1505.2,323.1,-0.8,1.8,2470.976,13.28,0.029,103.6
2022-08-20T01:10:03,42.805,6.029,0.015,-0.009,-0.024,103.0,102.0,100.0,13.3,1505.2,326.7,-0.8,1.8,2470.971,13.29,0.017,121.0
2022-08-20T01:13:03,42.805,6.029,0.016,-0.001,-0.024,103.0,103.0,101.0,13.4,1505.2,333.7,-0.7,1.8,2470.947,13.29,0.016,93.6
2022-08-20T01:16:03,42.805,6.029,0.006,0.005,-0.003,102.0,103.0,101.0,13.4,1505.2,326.6,-0.8,1.8,2470.92,13.29,0.007,50.2
2022-08-20T01:19:03,42.805,6.029,0.013,0.0,-0.003,102.0,102.0,102.0,13.4,1505.2,323.2,-0.7,1.9,2470.932,13.29,0.013,90.0
2022-08-20T01:22:03,42.805,6.029,0.023,-0.004,-0.021,102.0,104.0,100.0,13.4,1505.2,322.8,-0.7,1.8,2470.931,13.29,0.023,99.9
2022-08-20T01:25:03,42.805,6.029,0.001,-0.009,-0.016,102.0,103.0,101.0,13.4,1505.2,324.8,-0.7,1.8,2470.918,13.29,0.009,173.7
2022-08-20T01:28:03,42.805,6.029,0.009,0.013,-0.011,104.0,102.0,101.0,13.4,1505.2,330.6,-0.7,1.8,2470.933,13.29,0.015,34.7
2022-08-20T01:31:03,42.805,6.029,0.004,0.029,-0.012,102.0,103.0,101.0,13.4,1505.2,330.2,-0.8,1.8,2470.936,13.29,0.029,7.8
2022-08-20T01:34:03,42.805,6.029,0.022,0.005,-0.03,102.0,103.0,101.0,13.4,1505.2,318.4,-0.8,1.8,2470.912,13.29,0.022,77.2
2022-08-20T01:37:03,42.805,6.029,0.014,0.013,0.0,102.0,102.0,101.0,13.4,1505.2,323.8,-0.8,1.8,2470.89,13.29,0.019,47.1
2022-08-20T01:40:03,42.805,6.029,0.0,-0.004,-0.028,102.0,104.0,101.0,13.3,1505.2,334.5,-0.8,1.8,2470.884,13.29,0.004,180.0
2022-08-20T01:43:03,42.805,6.029,0.005,-0.005,-0.023,103.0,104.0,100.0,13.4,1505.2,328.6,-0.7,1.8,2470.902,13.29,0.007,135.0
2022-08-20T01:46:03,42.805,6.029,0.0,0.004,-0.008,102.0,103.0,101.0,13.3,1505.2,322.4,-0.8,1.8,2470.9,13.29,0.004,0.0
2022-08-20T01:49:03,42.805,6.029,0.009,0.001,-0.026,103.0,103.0,101.0,13.3,1505.2,332.6,-0.8,1.8,2470.926,13.29,0.009,83.7
2022-08-20T01:52:03,42.805,6.029,0.011,-0.033,-0.039,103.0,103.0,100.0,13.3,1505.2,328.1,-0.7,1.8,2470.9,13.29,0.034,161.6
2022-08-20T01:55:03,42.805,6.029,0.002,-0.001,0.018,104.0,101.0,102.0,13.4,1505.2,332.3,-0.8,1.8,2470.906,13.29,0.002,116.6
2022-08-20T01:58:03,42.805,6.029,-0.001,0.012,0.003,101.0,103.0,102.0,13.4,1505.2,322.0,-0.7,1.8,2470.882,13.29,0.012,355.2
2022-08-20T02:04:03,42.805,6.029,-0.008,-0.008,0.0,102.0,102.0,101.0,13.4,1505.2,326.7,-0.8,1.8,2470.916,13.29,0.011,225.0
2022-08-20T02:07:03,42.805,6.029,0.014,0.019,-0.01,102.0,103.0,102.0,13.4,1505.2,328.7,-0.8,1.8,2470.966,13.29,0.023,36.4
2022-08-20T02:10:03,42.805,6.029,0.01,0.0,-0.017,103.0,102.0,101.0,13.4,1505.2,332.1,-0.8,1.8,2470.911,13.29,0.01,90.0
2022-08-20T02:13:03,42.805,6.029,0.01,-0.015,-0.011,102.0,103.0,102.0,13.4,1505.2,330.8,-0.8,1.8,2470.914,13.29,0.018,146.3
2022-08-20T02:16:03,42.805,6.029,0.017,-0.016,-0.018,103.0,103.0,102.0,13.4,1505.2,327.8,-0.8,1.8,2470.918,13.29,0.023,133.3
2022-08-20T02:19:03,42.805,6.029,0.009,-0.019,-0.013,103.0,101.0,101.0,13.4,1505.2,317.9,-0.8,1.8,2470.89,13.29,0.021,154.7
2022-08-20T02:22:03,42.805,6.029,-0.014,0.004,-0.007,103.0,105.0,100.0,13.4,1505.2,325.5,-0.8,1.8,2470.901,13.29,0.014,285.9
2022-08-20T02:25:03,42.805,6.029,0.0,0.005,0.01,102.0,102.0,101.0,13.4,1505.2,333.9,-0.7,1.8,2470.885,13.29,0.005,0.0
2022-08-20T02:28:03,42.805,6.029,0.0,0.006,0.006,103.0,103.0,101.0,13.4,1505.2,325.6,-0.7,1.9,2470.906,13.29,0.006,0.0
2022-08-20T02:31:03,42.805,6.029,0.019,-0.021,-0.003,101.0,103.0,101.0,13.4,1505.2,322.4,-0.8,1.8,2470.906,13.29,0.028,137.9
2022-08-20T02:34:03,42.805,6.029,0.003,0.004,0.005,102.0,101.0,101.0,13.4,1505.2,329.4,-0.8,1.8,2470.847,13.29,0.005,36.9
2022-08-20T02:37:03,42.805,6.029,0.011,-0.015,0.019,103.0,102.0,99.0,13.4,1505.2,322.3,-0.7,1.8,2470.911,13.29,0.018,143.7
2022-08-20T02:40:03,42.805,6.029,-0.025,-0.017,-0.019,103.0,104.0,99.0,13.4,1505.2,325.2,-0.8,1.9,2470.889,13.29,0.03,235.8
2022-08-20T02:43:03,42.805,6.029,0.0,-0.006,-0.001,102.0,102.0,101.0,13.4,1505.2,319.2,-0.8,1.8,2470.856,13.29,0.006,180.0
2022-08-20T02:46:03,42.805,6.029,-0.014,0.003,-0.013,102.0,103.0,101.0,13.3,1505.2,322.7,-0.8,1.8,2470.892,13.29,0.014,282.1
2022-08-20T02:49:03,42.805,6.029,0.02,-0.013,-0.037,105.0,104.0,102.0,13.4,1505.2,325.9,-0.7,1.8,2470.879,13.29,0.023,123.0
2022-08-20T02:52:03,42.805,6.029,-0.014,-0.002,-0.017,103.0,102.0,100.0,13.4,1505.2,318.0,-0.7,1.8,2470.887,13.29,0.014,261.9
2022-08-20T02:55:03,42.805,6.029,-0.002,-0.007,0.005,102.0,100.0,100.0,13.3,1505.2,324.9,-0.8,1.8,2470.871,13.29,0.007,195.9
2022-08-20T02:58:03,42.805,6.029,0.012,-0.018,-0.022,102.0,102.0,101.0,13.4,1505.2,323.6,-0.8,1.8,2470.905,13.29,0.021,146.3
2022-08-20T03:04:03,42.805,6.029,0.009,-0.021,-0.027,102.0,102.0,101.0,13.4,1505.2,333.4,-0.8,1.8,2470.95,13.29,0.022,156.8
2022-08-20T03:07:03,42.805,6.029,-0.001,0.0,-0.015,103.0,102.0,101.0,13.3,1505.2,330.6,-0.8,1.8,2470.897,13.29,0.001,270.0
2022-08-20T03:10:03,42.805,6.029,-0.01,-0.018,-0.004,102.0,102.0,101.0,13.4,1505.2,323.4,-0.8,1.8,2470.908,13.29,0.02,209.1
2022-08-20T03:13:03,42.805,6.029,0.003,0.006,-0.005,104.0,101.0,102.0,13.4,1505.2,328.5,-0.8,1.8,2470.913,13.29,0.006,26.6
2022-08-20T03:16:03,42.805,6.029,0.001,-0.022,-0.026,102.0,102.0,102.0,13.4,1505.2,320.5,-0.8,1.8,2470.892,13.29,0.022,177.4
2022-08-20T03:19:03,42.805,6.029,-0.013,0.012,0.008,103.0,102.0,101.0,13.3,1505.2,328.4,-0.7,1.8,2470.882,13.29,0.017,312.7
2022-08-20T03:22:03,42.805,6.029,0.005,-0.027,-0.044,101.0,102.0,101.0,13.4,1505.2,331.8,-0.7,1.8,2470.855,13.29,0.027,169.5
2022-08-20T03:25:03,42.805,6.029,0.006,-0.007,-0.033,103.0,103.0,101.0,13.4,1505.2,326.1,-0.7,1.8,2470.869,13.29,0.009,139.4
2022-08-20T03:28:03,42.805,6.029,0.005,0.006,-0.039,102.0,103.0,100.0,13.3,1505.2,319.4,-0.8,1.8,2470.874,13.29,0.007,39.8
2022-08-20T03:31:03,42.805,6.029,0.017,0.001,-0.028,104.0,104.0,99.0,13.4,1505.2,328.5,-0.8,1.8,2470.891,13.29,0.017,86.6
2022-08-20T03:34:03,42.805,6.029,-0.003,-0.024,-0.017,104.0,103.0,101.0,13.4,1505.2,319.1,-0.8,1.8,2470.867,13.29,0.024,187.1
2022-08-20T03:37:03,42.805,6.029,0.0,-0.018,-0.004,103.0,101.0,101.0,13.3,1505.2,333.1,-0.8,1.8,2470.919,13.29,0.018,180.0
2022-08-20T03:40:03,42.805,6.029,0.004,-0.003,0.0,103.0,105.0,100.0,13.4,1505.2,332.8,-0.8,1.8,2470.892,13.29,0.005,126.9
2022-08-20T03:43:03,42.805,6.029,-0.002,0.011,-0.003,102.0,101.0,101.0,13.4,1505.2,327.3,-0.7,1.8,2470.865,13.29,0.011,349.7
2022-08-20T03:46:03,42.805,6.029,0.003,0.002,-0.009,103.0,103.0,101.0,13.4,1505.2,332.4,-0.8,1.8,2470.858,13.29,0.003,56.3
2022-08-20T03:49:03,42.805,6.029,-0.003,-0.016,-0.015,104.0,102.0,102.0,13.4,1505.2,322.0,-0.7,1.9,2470.855,13.29,0.016,190.6
2022-08-20T03:52:03,42.805,6.029,0.001,0.002,-0.025,103.0,103.0,102.0,13.4,1505.2,333.1,-0.8,1.8,2470.869,13.29,0.002,26.6
2022-08-20T03:55:03,42.805,6.029,0.012,0.006,0.002,101.0,104.0,101.0,13.3,1505.2,325.4,-0.7,1.8,2470.899,13.29,0.013,63.4
2022-08-20T03:58:03,42.805,6.029,-0.004,-0.009,0.008,102.0,101.0,101.0,13.4,1505.2,326.8,-0.8,1.8,2470.885,13.29,0.009,204.0
2022-08-20T04:04:03,42.805,6.029,-0.011,-0.019,-0.005,103.0,102.0,102.0,13.4,1505.2,317.6,-0.7,1.8,2470.884,13.29,0.021,210.1
2022-08-20T04:07:03,42.805,6.029,-0.007,-0.016,-0.009,103.0,101.0,106.0,13.4,1505.2,332.5,-0.8,1.8,2470.927,13.29,0.017,203.6
2022-08-20T04:10:03,42.805,6.029,0.01,-0.013,-0.015,104.0,102.0,102.0,13.3,1505.2,323.8,-0.8,1.8,2470.923,13.29,0.016,142.4
2022-08-20T04:13:03,42.805,6.029,-0.01,-0.004,-0.031,103.0,102.0,101.0,13.3,1505.2,329.8,-0.8,1.8,2470.89,13.29,0.01,248.2
2022-08-20T04:16:03,42.805,6.029,-0.003,-0.012,-0.019,101.0,105.0,100.0,13.3,1505.2,329.5,-0.8,1.8,2470.875,13.29,0.012,194.0
2022-08-20T04:19:03,42.805,6.029,0.0,-0.006,-0.021,103.0,104.0,101.0,13.4,1505.2,325.6,-0.8,1.8,2470.91,13.29,0.006,180.0
2022-08-20T04:22:03,42.805,6.029,0.012,-0.002,-0.019,102.0,103.0,103.0,13.4,1505.2,321.3,-0.8,1.8,2470.897,13.29,0.012,99.5
2022-08-20T04:25:03,42.805,6.029,-0.012,-0.002,-0.003,102.0,102.0,100.0,13.3,1505.2,328.6,-0.8,1.8,2470.876,13.29,0.012,260.5
2022-08-20T04:28:03,42.805,6.029,-0.016,0.0,-0.026,103.0,102.0,101.0,13.4,1505.2,327.4,-0.8,1.8,2470.868,13.29,0.016,270.0
2022-08-20T04:31:03,42.805,6.029,0.003,-0.002,-0.004,102.0,103.0,101.0,13.4,1505.2,321.9,-0.8,1.8,2470.887,13.29,0.003,123.7
2022-08-20T04:34:03,42.805,6.029,0.012,-0.012,-0.018,102.0,103.0,100.0,13.4,1505.2,331.1,-0.8,1.8,2470.874,13.29,0.016,135.0
2022-08-20T04:37:03,42.805,6.029,-0.011,-0.013,-0.021,103.0,101.0,102.0,13.4,1505.2,324.5,-0.8,1.8,2470.875,13.29,0.017,220.2
2022-08-20T04:40:03,42.805,6.029,0.004,-0.004,0.006,102.0,101.0,102.0,13.4,1505.2,332.5,-0.7,1.8,2470.883,13.29,0.005,135.0
2022-08-20T04:43:03,42.805,6.029,-0.025,0.001,-0.014,103.0,103.0,102.0,13.4,1505.2,328.8,-0.7,1.8,2470.856,13.29,0.025,272.3
2022-08-20T04:46:03,42.805,6.029,-0.014,-0.005,-0.01,102.0,102.0,102.0,13.4,1505.2,330.5,-0.8,1.8,2470.878,13.29,0.014,250.4
2022-08-20T04:49:03,42.805,6.029,-0.002,0.0,-0.023,102.0,103.0,102.0,13.4,1505.2,318.8,-0.8,1.8,2470.863,13.29,0.002,270.0
2022-08-20T04:52:03,42.805,6.029,-0.02,0.01,0.019,103.0,103.0,101.0,13.3,1505.2,330.2,-0.8,1.8,2470.876,13.29,0.022,296.6
2022-08-20T04:55:03,42.805,6.029,-0.008,-0.02,0.003,103.0,102.0,101.0,13.4,1505.2,329.5,-0.8,1.8,2470.852,13.29,0.021,201.8
2022-08-20T04:58:03,42.805,6.029,0.005,-0.012,-0.032,105.0,102.0,101.0,13.3,1505.2,322.8,-0.8,1.8,2470.897,13.29,0.013,157.4
2022-08-20T05:04:03,42.805,6.029,-0.018,0.001,-0.047,102.0,102.0,102.0,13.3,1505.2,318.4,-0.8,1.8,2470.906,13.29,0.018,273.2
2022-08-20T05:07:03,42.805,6.029,-0.015,0.012,0.008,102.0,103.0,102.0,13.4,1505.2,327.2,-0.8,1.8,2470.898,13.29,0.019,308.7
2022-08-20T05:10:03,42.805,6.029,-0.005,0.001,-0.013,102.0,102.0,102.0,13.4,1505.2,328.1,-0.8,1.8,2470.889,13.29,0.005,281.3
2022-08-20T05:13:03,42.805,6.029,-0.03,0.001,0.001,102.0,102.0,102.0,13.4,1505.2,318.6,-0.7,1.8,2470.89,13.29,0.03,271.9
2022-08-20T05:16:03,42.805,6.029,-0.012,-0.009,-0.011,102.0,103.0,101.0,13.4,1505.2,325.6,-0.7,1.8,2470.89,13.29,0.015,233.1
2022-08-20T05:19:03,42.805,6.029,-0.004,-0.002,0.002,102.0,103.0,101.0,13.4,1505.2,321.4,-0.8,1.8,2470.875,13.29,0.004,243.4
2022-08-20T05:22:03,42.805,6.029,-0.009,-0.003,-0.014,103.0,102.0,101.0,13.3,1505.2,325.0,-0.7,1.8,2470.877,13.29,0.009,251.6
2022-08-20T05:25:03,42.805,6.029,0.015,-0.001,0.01,104.0,101.0,102.0,13.3,1505.2,323.2,-0.8,1.8,2470.869,13.29,0.015,93.8
2022-08-20T05:28:03,42.805,6.029,-0.008,-0.011,-0.005,103.0,101.0,103.0,13.3,1505.2,327.1,-0.8,1.8,2470.86,13.29,0.013,216.0
2022-08-20T05:31:03,42.805,6.029,-0.016,-0.018,-0.019,102.0,106.0,101.0,13.3,1505.2,322.6,-0.7,1.8,2470.853,13.29,0.024,221.6
2022-08-20T05:34:03,42.805,6.029,-0.012,-0.015,0.008,102.0,103.0,101.0,13.4,1505.2,331.8,-0.8,1.8,2470.821,13.29,0.019,218.7
2022-08-20T05:37:03,42.805,6.029,-0.007,0.033,-0.018,102.0,100.0,101.0,13.3,1505.2,323.2,-0.8,1.8,2470.87,13.29,0.033,348.0
2022-08-20T05:40:03,42.805,6.029,0.011,0.012,-0.029,104.0,101.0,102.0,13.3,1505.2,321.0,-0.8,1.9,2470.858,13.29,0.016,42.5
2022-08-20T05:43:03,42.805,6.029,0.004,0.032,-0.029,102.0,102.0,102.0,13.4,1505.2,329.0,-0.7,1.8,2470.811,13.29,0.032,7.1
2022-08-20T05:46:03,42.805,6.029,-0.001,0.031,-0.003,103.0,102.0,101.0,13.4,1505.2,328.5,-0.7,1.8,2470.863,13.29,0.031,358.2
2022-08-20T05:49:03,42.805,6.029,0.025,0.026,-0.035,101.0,103.0,103.0,13.4,1505.2,323.4,-0.7,1.8,2470.854,13.29,0.036,43.9
2022-08-20T05:52:03,42.805,6.029,0.018,0.02,-0.047,102.0,104.0,102.0,13.4,1505.2,324.9,-0.8,1.9,2470.853,13.29,0.026,42.0
2022-08-20T05:55:03,42.805,6.029,-0.022,0.015,-0.022,103.0,102.0,103.0,13.4,1505.2,322.4,-0.7,1.8,2470.868,13.29,0.026,304.3
2022-08-20T05:58:03,42.805,6.029,-0.002,0.032,-0.036,103.0,107.0,102.0,13.4,1505.2,325.1,-0.8,1.9,2470.84,13.29,0.032,356.4
2022-08-20T06:04:03,42.805,6.029,0.0,0.008,-0.063,104.0,102.0,103.0,13.4,1505.2,326.7,-0.8,1.8,2470.878,13.29,0.008,0.0
2022-08-20T06:07:03,42.805,6.029,-0.017,-0.001,-0.002,105.0,103.0,102.0,13.4,1505.2,328.9,-0.8,1.8,2470.903,13.29,0.017,266.6
2022-08-20T06:10:03,42.805,6.029,-0.01,0.011,-0.019,104.0,103.0,99.0,13.3,1505.2,322.0,-0.8,1.8,2470.898,13.29,0.014,317.7
2022-08-20T06:13:03,42.805,6.029,-0.011,0.002,-0.023,101.0,102.0,103.0,13.4,1505.2,326.7,-0.8,1.8,2470.873,13.29,0.011,280.3
2022-08-20T06:16:03,42.805,6.029,-0.018,0.018,-0.019,102.0,102.0,101.0,13.4,1505.2,326.3,-0.8,1.8,2470.857,13.29,0.025,315.0
2022-08-20T06:19:03,42.805,6.029,-0.026,0.003,-0.005,101.0,100.0,103.0,13.4,1505.2,320.1,-0.8,1.8,2470.888,13.29,0.026,276.6
2022-08-20T06:22:03,42.805,6.029,-0.019,0.012,-0.051,102.0,103.0,100.0,13.4,1505.2,327.1,-0.8,1.8,2470.868,13.29,0.022,302.3
2022-08-20T06:25:03,42.805,6.029,-0.017,-0.021,-0.004,103.0,101.0,101.0,13.3,1505.2,322.0,-0.7,1.8,2470.851,13.29,0.027,219.0
2022-08-20T06:28:03,42.805,6.029,-0.014,0.017,-0.008,101.0,105.0,102.0,13.4,1505.2,331.1,-0.7,1.8,2470.892,13.3,0.022,320.5
2022-08-20T06:31:03,42.805,6.029,-0.023,-0.005,-0.022,101.0,102.0,101.0,13.4,1505.2,331.7,-0.8,1.8,2470.831,13.3,0.023,257.7
2022-08-20T06:34:03,42.805,6.029,-0.006,0.002,-0.036,103.0,103.0,100.0,13.3,1505.2,327.6,-0.8,1.8,2470.847,13.3,0.006,288.4
2022-08-20T06:37:03,42.805,6.029,-0.019,0.015,-0.002,102.0,102.0,101.0,13.4,1505.2,319.8,-0.8,1.8,2470.868,13.3,0.024,308.3
2022-08-20T06:40:03,42.805,6.029,-0.011,0.012,0.006,103.0,103.0,100.0,13.3,1505.2,321.2,-0.7,1.8,2470.855,13.3,0.016,317.5
2022-08-20T06:43:03,42.805,6.029,-0.008,0.013,0.007,101.0,103.0,102.0,13.3,1505.2,318.2,-0.7,1.8,2470.842,13.3,0.015,328.4
2022-08-20T06:46:03,42.805,6.029,-0.016,0.007,-0.012,102.0,103.0,101.0,13.4,1505.2,320.1,-0.8,1.8,2470.85,13.3,0.017,293.6
2022-08-20T06:49:03,42.805,6.029,-0.011,-0.005,-0.032,100.0,103.0,100.0,13.4,1505.2,325.4,-0.8,1.8,2470.843,13.3,0.012,245.6
2022-08-20T06:52:03,42.805,6.029,-0.007,-0.016,-0.021,103.0,102.0,100.0,13.3,1505.2,318.0,-0.8,1.8,2470.877,13.3,0.017,203.6
2022-08-20T06:55:03,42.805,6.029,-0.009,-0.001,-0.005,102.0,103.0,101.0,13.4,1505.2,325.8,-0.8,1.8,2470.819,13.3,0.009,263.7
2022-08-20T06:58:03,42.805,6.029,-0.019,0.002,-0.025,104.0,102.0,103.0,13.3,1505.2,330.3,-0.7,1.8,2470.848,13.3,0.019,276.0
2022-08-20T07:04:03,42.805,6.029,-0.014,-0.01,-0.025,103.0,102.0,101.0,13.4,1505.2,331.5,-0.8,1.8,2470.888,13.29,0.017,234.5
2022-08-20T07:07:03,42.805,6.029,-0.021,-0.01,-0.03,101.0,103.0,102.0,13.4,1505.2,323.5,-0.8,1.8,2470.89,13.3,0.023,244.5
2022-08-20T07:10:03,42.805,6.029,-0.02,-0.002,-0.017,104.0,101.0,102.0,13.4,1505.2,324.1,-0.8,1.8,2470.828,13.29,0.02,264.3
2022-08-20T07:13:03,42.805,6.029,-0.015,-0.008,-0.011,104.0,103.0,100.0,13.3,1505.2,321.7,-0.8,1.8,2470.839,13.3,0.017,241.9
2022-08-20T07:16:03,42.805,6.029,0.007,0.005,0.015,102.0,104.0,101.0,13.4,1505.2,320.9,-0.8,1.8,2470.869,13.3,0.008,54.5
2022-08-20T07:19:03,42.805,6.029,-0.006,-0.01,-0.018,104.0,103.0,101.0,13.4,1505.2,322.0,-0.8,1.8,2470.841,13.3,0.011,211.0
2022-08-20T07:22:03,42.805,6.029,0.004,0.001,0.002,105.0,103.0,102.0,13.4,1505.2,333.1,-0.8,1.8,2470.839,13.3,0.004,76.0
2022-08-20T07:25:03,42.805,6.029,0.022,-0.012,-0.015,102.0,103.0,101.0,13.3,1505.2,333.4,-0.7,1.8,2470.828,13.3,0.025,118.6
2022-08-20T07:28:03,42.805,6.029,-0.014,-0.002,-0.025,102.0,102.0,101.0,13.4,1505.2,330.6,-0.7,1.8,2470.909,13.3,0.014,261.9
2022-08-20T07:31:03,42.805,6.029,-0.025,-0.005,0.0,103.0,102.0,103.0,13.4,1505.2,327.9,-0.8,1.9,2470.848,13.3,0.025,258.7
2022-08-20T07:34:03,42.805,6.029,0.003,0.017,-0.012,106.0,102.0,101.0,13.4,1505.2,329.3,-0.8,1.8,2470.83,13.3,0.017,10.0
2022-08-20T07:37:03,42.805,6.029,-0.01,0.006,0.008,103.0,102.0,102.0,13.4,1505.2,318.9,-0.8,1.8,2470.827,13.3,0.011,301.0
2022-08-20T07:40:03,42.805,6.029,-0.024,-0.034,-0.023,102.0,105.0,101.0,13.4,1505.2,321.1,-0.8,1.8,2470.848,13.3,0.041,215.2
2022-08-20T07:43:03,42.805,6.029,-0.014,-0.001,-0.027,103.0,103.0,102.0,13.3,1505.2,327.9,-0.7,1.8,2470.819,13.3,0.014,265.9
2022-08-20T07:46:03,42.805,6.029,0.012,-0.008,-0.004,102.0,101.0,102.0,13.3,1505.2,323.9,-0.8,1.8,2470.83,13.3,0.014,123.7
2022-08-20T07:49:03,42.805,6.029,0.011,-0.002,-0.031,102.0,103.0,102.0,13.4,1505.2,322.8,-0.8,1.8,2470.817,13.3,0.011,100.3
2022-08-20T07:52:03,42.805,6.029,-0.003,-0.012,-0.007,102.0,103.0,102.0,13.4,1505.2,321.2,-0.7,1.8,2470.822,13.3,0.012,194.0
2022-08-20T07:55:03,42.805,6.029,-0.03,0.014,-0.028,101.0,102.0,102.0,13.4,1505.2,328.7,-0.8,1.8,2470.845,13.3,0.033,295.0
2022-08-20T07:58:03,42.805,6.029,-0.01,0.007,-0.014,104.0,103.0,101.0,13.4,1505.2,332.6,-0.7,1.8,2470.822,13.3,0.012,305.0
2022-08-20T08:04:03,42.805,6.029,-0.007,-0.001,-0.013,104.0,103.0,101.0,13.4,1505.2,323.8,-0.8,1.8,2470.876,13.29,0.007,261.9
2022-08-20T08:07:03,42.805,6.029,0.013,-0.011,-0.021,103.0,102.0,102.0,13.4,1505.2,323.4,-0.8,1.8,2470.863,13.29,0.017,130.2
2022-08-20T08:10:03,42.805,6.029,-0.023,-0.016,-0.016,103.0,104.0,101.0,13.4,1505.2,322.8,-0.8,1.8,2470.902,13.29,0.028,235.2
2022-08-20T08:13:03,42.805,6.029,-0.011,-0.004,-0.027,102.0,103.0,101.0,13.3,1505.2,329.7,-0.8,1.8,2470.85,13.29,0.011,250.0
2022-08-20T08:16:03,42.805,6.029,-0.025,-0.008,-0.002,104.0,103.0,101.0,13.4,1505.2,318.6,-0.7,1.8,2470.851,13.29,0.026,252.3
2022-08-20T08:19:03,42.805,6.029,-0.002,0.002,-0.018,104.0,101.0,102.0,13.3,1505.2,329.5,-0.7,1.8,2470.813,13.3,0.002,315.0
2022-08-20T08:22:03,42.805,6.029,-0.005,-0.004,0.007,102.0,103.0,102.0,13.3,1505.2,321.3,-0.7,1.8,2470.844,13.3,0.006,231.3
2022-08-20T08:25:03,42.805,6.029,-0.013,0.008,-0.023,101.0,102.0,101.0,13.3,1505.2,331.1,-0.8,1.8,2470.847,13.3,0.015,301.6
2022-08-20T08:28:03,42.805,6.029,-0.007,-0.011,0.0,103.0,102.0,100.0,13.4,1505.2,331.4,-0.8,1.8,2470.833,13.3,0.013,212.5
2022-08-20T08:31:03,42.805,6.029,0.0,0.016,-0.004,104.0,103.0,102.0,13.3,1505.2,323.4,-0.8,1.8,2470.839,13.3,0.016,0.0
2022-08-20T08:34:03,42.805,6.029,-0.003,-0.008,-0.012,103.0,102.0,102.0,13.4,1505.2,327.9,-0.8,1.8,2470.824,13.3,0.008,200.6
2022-08-20T08:37:03,42.805,6.029,-0.014,0.018,-0.002,104.0,102.0,101.0,13.4,1505.2,330.5,-0.7,1.8,2470.833,13.3,0.022,322.1
2022-08-20T08:40:03,42.805,6.029,-0.025,-0.008,-0.013,102.0,103.0,101.0,13.4,1505.2,321.9,-0.8,1.9,2470.802,13.3,0.026,252.3
2022-08-20T08:43:03,42.805,6.029,-0.003,-0.001,-0.025,102.0,103.0,100.0,13.4,1505.2,328.1,-0.7,1.8,2470.829,13.3,0.003,251.6
2022-08-20T08:46:03,42.805,6.029,-0.016,0.002,-0.001,101.0,103.0,101.0,13.4,1505.2,325.7,-0.8,1.8,2470.855,13.3,0.016,277.1
2022-08-20T08:49:03,42.805,6.029,-0.008,0.004,-0.007,101.0,102.0,101.0,13.4,1505.2,324.9,-0.8,1.8,2470.85,13.3,0.008,296.6
2022-08-20T08:52:03,42.805,6.029,0.0,0.001,-0.022,102.0,102.0,101.0,13.4,1505.2,323.2,-0.8,1.8,2470.805,13.3,0.001,0.0
2022-08-20T08:55:03,42.805,6.029,0.001,-0.014,-0.02,102.0,103.0,102.0,13.3,1505.2,326.8,-0.8,1.8,2470.826,13.3,0.014,175.9
2022-08-20T08:58:03,42.805,6.029,-0.032,0.005,-0.033,102.0,103.0,101.0,13.3,1505.2,324.0,-0.7,1.8,2470.845,13.3,0.032,278.9
2022-08-20T09:04:03,42.805,6.029,-0.02,-0.006,-0.052,104.0,103.0,101.0,13.4,1505.2,317.2,-0.8,1.8,2470.919,13.29,0.02,253.3
2022-08-20T09:07:03,42.805,6.029,-0.014,0.0,-0.019,103.0,103.0,101.0,13.4,1505.2,331.4,-0.7,1.8,2470.897,13.29,0.014,270.0
2022-08-20T09:10:03,42.805,6.029,-0.026,-0.005,-0.017,103.0,102.0,102.0,13.4,1505.2,322.1,-0.7,1.8,2470.857,13.29,0.026,259.1
2022-08-20T09:13:03,42.805,6.029,-0.009,0.002,0.01,102.0,102.0,102.0,13.4,1505.2,332.2,-0.8,1.8,2470.823,13.29,0.009,282.5
2022-08-20T09:16:03,42.805,6.029,-0.023,0.008,0.007,103.0,103.0,103.0,13.3,1505.2,324.5,-0.8,1.8,2470.872,13.29,0.024,289.2
2022-08-20T09:19:03,42.805,6.029,-0.005,0.027,-0.03,103.0,102.0,101.0,13.3,1505.2,328.2,-0.7,1.8,2470.851,13.29,0.027,349.5
2022-08-20T09:22:03,42.805,6.029,-0.023,0.001,-0.008,101.0,102.0,102.0,13.4,1505.2,331.1,-0.8,1.8,2470.866,13.29,0.023,272.5
2022-08-20T09:25:03,42.805,6.029,-0.003,0.011,-0.037,102.0,104.0,102.0,13.3,1505.2,326.0,-0.8,1.8,2470.819,13.29,0.011,344.7
2022-08-20T09:28:03,42.805,6.029,-0.01,0.0,0.001,104.0,103.0,101.0,13.3,1505.2,318.0,-0.8,1.8,2470.832,13.29,0.01,270.0
2022-08-20T09:31:03,42.805,6.029,-0.016,0.024,0.005,102.0,103.0,101.0,13.4,1505.2,334.5,-0.8,1.8,2470.829,13.29,0.028,326.3
2022-08-20T09:34:03,42.805,6.029,0.001,-0.011,-0.047,102.0,103.0,101.0,13.3,1505.2,324.6,-0.7,1.8,2470.872,13.29,0.011,174.8
2022-08-20T09:37:03,42.805,6.029,-0.018,-0.001,-0.002,103.0,102.0,102.0,13.4,1505.2,321.7,-0.7,1.9,2470.822,13.29,0.018,266.8
2022-08-20T09:40:03,42.805,6.029,-0.01,0.005,-0.024,103.0,104.0,101.0,13.4,1505.2,327.9,-0.7,1.8,2470.868,13.29,0.011,296.6
2022-08-20T09:43:03,42.805,6.029,-0.01,0.019,-0.018,102.0,103.0,101.0,13.4,1505.2,321.3,-0.7,1.8,2470.879,13.29,0.021,332.2
2022-08-20T09:46:03,42.805,6.029,0.015,0.016,0.003,102.0,102.0,101.0,13.4,1505.2,327.6,-0.8,1.8,2470.862,13.29,0.021,43.1
2022-08-20T09:49:03,42.805,6.029,-0.015,0.005,-0.012,100.0,103.0,101.0,13.4,1505.2,319.8,-0.7,1.8,2470.891,13.29,0.015,288.4
2022-08-20T09:52:03,42.805,6.029,-0.003,0.004,0.005,105.0,102.0,101.0,13.4,1505.2,319.6,-0.7,1.8,2470.826,13.29,0.005,323.1
2022-08-20T09:55:03,42.805,6.029,-0.001,0.002,-0.004,102.0,103.0,101.0,13.4,1505.2,333.7,-0.8,1.8,2470.871,13.29,0.002,333.4
2022-08-20T09:58:03,42.805,6.029,0.008,0.012,-0.013,103.0,103.0,101.0,13.4,1505.2,322.0,-0.8,1.8,2470.854,13.29,0.014,33.7